OpenBCM V1.13 (Linux)

Packet Radio Mailbox

DB0FHN

[JN59NK Nuernberg]

 Login: GUEST





  
CX2SA  > KEPS     25.03.05 08:46l 168 Lines 7910 Bytes #999 (0) @ AMSAT
BID : ORB05083.N
Read: GUEST DL7NDR
Subj: 2Line Orbital Elements 05083.AMSAT
Path: DB0FHN<DB0FOR<DB0MRW<DB0RGB<OK0PPL<DB0RES<F6GGY<TU5EX<I0TVL<CX2SA
Sent: 050325/0641Z @:CX2SA.LAV.URY.SA #:27312 [Minas] FBB7.00e $:ORB05083.N
From: CX2SA@CX2SA.LAV.URY.SA
To  : KEPS@AMSAT


HR AMSAT ORBITAL ELEMENTS FOR AMATEUR SATELLITES IN NASA FORMAT
FROM WA5QGD FORT WORTH,TX March 24, 2005
SEND SUBSCRIBE/UNSUBSCRIBE TO majordomo@amsat.org ONLY
BID: ORB05083.N

DECODE 2-LINE ELSETS WITH THE FOLLOWING KEY:
1 AAAAAU 00  0  0 BBBBB.BBBBBBBB  .CCCCCCCC  00000-0  00000-0 0  DDDZ
2 AAAAA EEE.EEEE FFF.FFFF GGGGGGG HHH.HHHH III.IIII JJ.JJJJJJJJKKKKKZ
KEY: A-CATALOGNUM B-EPOCHTIME C-DECAY D-ELSETNUM E-INCLINATION F-RAAN
G-ECCENTRICITY H-ARGPERIGEE I-MNANOM J-MNMOTION K-ORBITNUM Z-CHECKSUM

TO ALL RADIO AMATEURS BT

AO-07
1 07530U 74089B   05082.75910956 -.00000028  00000-0  10000-3 0 04079
2 07530 101.6405 130.6497 0012144 041.0253 319.1731 12.53571002388944
AO-10
1 14129U 83058B   05082.26539306 -.00000121  00000-0  10000-3 0  1632
2 14129 027.1705 040.9049 6036414 175.1014 196.0295 02.05865282163763
UO-11
1 14781U 84021B   05082.84246279  .00000464  00000-0  69886-4 0  7413
2 14781 098.2000 078.7019 0007981 272.8691 087.1544 14.79193216129187
RS-10/11
1 18129U 87054A   05082.96450632  .00000040  00000-0  26802-4 0 06448
2 18129 082.9240 301.1801 0010155 265.3606 094.6388 13.72755858889387
FO-20
1 20480U 90013C   05083.56811945 -.00000017  00000-0  25341-4 0  8562
2 20480 099.0213 273.8795 0540838 071.4812 294.4254 12.83345535708646
RS-12/13
1 21089U 91007A   05083.21478312  .00000017  00000-0  19980-5 0  8709
2 21089 082.9253 333.9614 0028088 318.9083 040.9952 13.74448667708822
RS-15
1 23439U 94085A   05082.90571417 -.00000039  00000-0  10597-3 0 08713
2 23439 064.8141 245.4711 0161657 331.2248 027.9831 11.27551340421770
FO-29
1 24278U 96046B   05082.79260142 -.00000079  00000-0 -45277-4 0 09249
2 24278 098.5566 143.8535 0351164 037.7009 324.8190 13.52908753424649
SO-33
1 25509U 98061B   05083.73464187  .00000051  00000-0 -24058-5 0  3299
2 25509 031.4288 149.9434 0355509 147.9007 214.3794 14.27973244334742
AO-40
1 26609U 00072B   05082.93154514 -.00000295  00000-0  10000-3 0  5165
2 26609 008.2959 313.6197 7951582 020.6709 358.7880 01.25588406 20199
UO-14
1 20437U 90005B   05082.63391429  .00000076  00000-0  43853-4 0 07372
2 20437 098.1974 097.1313 0011803 088.7941 271.4605 14.31403572791798
AO-16
1 20439U 90005D   05083.07352972  .00000044  00000-0  31554-4 0  4257
2 20439 098.2144 112.7891 0011996 095.5817 264.6736 14.31665241791912
WO-18
1 20441U 90005F   05082.38372777  .00000039  00000-0  29899-4 0 06208
2 20441 098.2276 116.4370 0012697 096.2876 263.9769 14.31739494791871
LO-19
1 20442U 90005G   05083.66981157  .00000037  00000-0  29062-4 0  3543
2 20442 098.2354 122.0308 0012951 091.9449 268.3227 14.31911459792124
UO-22
1 21575U 91050B   05082.84501801  .00000054  00000-0  30832-4 0 03620
2 21575 098.2350 051.4356 0007068 355.5055 004.6066 14.39471175718226
KO-23
1 22077U 92052B   05082.70275851 -.00000037  00000-0  10000-3 0 04255
2 22077 066.0899 325.4802 0015457 277.4168 082.5100 12.86428839592596
AO-27
1 22825U 93061C   05083.76015042  .00000025  00000-0  25915-4 0   948
2 22825 098.2502 083.7343 0009149 147.7997 212.3725 14.29119883599160
IO-26
1 22826U 93061D   05082.54592029  .00000056  00000-0  37739-4 0 07598
2 22826 098.2439 083.8709 0009476 149.0432 211.1324 14.29359491599050
KO-25
1 22828U 93061F   05083.61177150 -.00000026  00000-0  55928-5 0   135
2 22828 098.2392 085.0958 0010743 125.8677 234.3500 14.29674069567433
TO-31
1 25396U 98043C   05082.73751465 -.00000043  00000-0  00000-0 0 02072
2 25396 098.5378 152.5246 0003537 079.8540 280.3055 14.23661824348255
GO-32
1 25397U 98043D   05082.85675838  .00000139  00000-0  80642-4 0 07046
2 25397 098.5288 150.3208 0002181 098.6683 261.4717 14.23073484348198
UO-36
1 25693U 99021A   05083.38304933 -.00000081  00000-0  85517-5 0   256
2 25693 064.5599 184.1425 0033447 222.4310 137.4197 14.78481725319287
SO-41
1 26545U 00057A   05082.43554894  .00000144  00000-0  37914-4 0 00337
2 26545 064.5569 201.9509 0041070 320.0315 039.7766 14.80046981242244
MO-46
1 26548U 00057D   05083.33982685  .00000256  00000-0  49642-4 0  1362
2 26548 064.5577 182.8103 0038925 310.3273 049.4444 14.82659287242706
SO-42
1 26549U 00057E   05083.71294087  .00000274  00000-0  55961-4 0   941
2 26549 064.5562 206.1819 0041902 325.6098 034.2295 14.78930611242263
NO-44
1 26931U 01043C   05083.72358681  .00000016  00000-0  38695-4 0  9986
2 26931 067.0506 085.3326 0007105 257.0282 103.0122 14.29369446181695
AO-49
1 27605U 02058A   05083.81942820  .00000078  00000-0  33590-4 0  6935
2 27605 064.5594 031.8428 0085279 256.7534 102.4091 14.72060026121430
SO-50
1 27607U 02058C   05082.84888641  .00000323  00000-0  71907-4 0 06745
2 27607 064.5598 039.9666 0086094 255.8362 103.3188 14.70918426121187
AO-51
1 28375U 04025K   05082.68865111  .00000101  00000-0  43411-4 0  2135
2 28375 098.2222 148.6015 0085010 128.8806 232.0014 14.40443591 38305
NOAA-10
1 16969U 86073A   05083.22119132  .00000033  00000-0  31811-4 0  6645
2 16969 098.7646 088.7760 0012780 025.0230 335.1569 14.27246468962978
NOAA-11
1 19531U 88089A   05083.21455845  .00000110  00000-0  80008-4 0  5169
2 19531 098.8455 171.0130 0011662 185.2516 174.8538 14.14748519850910
NOAA-12
1 21263U 91032A   05083.17572907 -.00000014  00000-0  12734-4 0    92
2 21263 098.6976 074.2429 0012295 320.2796 039.7482 14.25454660720130
MET-3/5
1 21655U 91056A   05083.39539655  .00000051  00000-0  10000-3 0  7731
2 21655 082.5563 218.5406 0014281 087.1395 273.1386 13.17001101654151
MET-2/21
1 22782U 93055A   05082.79213483 -.00000030  00000-0 -40433-4 0 01619
2 22782 082.5504 328.7338 0022411 006.5724 353.5704 13.83583963583760
OKEAN-4
1 23317U 94066A   05083.75850831  .00000456  00000-0  54103-4 0  5835
2 23317 082.5428 336.1123 0023959 056.6629 303.6879 14.82100303563404
NOAA-14
1 23455U 94089A   05083.20831340 -.00000088  00000-0 -22205-4 0  5344
2 23455 099.1020 130.1117 0008832 234.9954 125.0392 14.13547034527494
SICH-1
1 23657U 95046A   05083.72145005  .00000337  00000-0  40093-4 0  3860
2 23657 082.5268 116.9888 0025468 043.3490 316.9727 14.81115659515451
NOAA-15
1 25338U 98030A   05083.50142280  .00000081  00000-0  53128-4 0  9788
2 25338 098.5165 094.4041 0009662 243.8090 116.2119 14.24496146356699
RESURS
1 25394U 98043A   05083.89787002  .00000024  00000-0  29077-4 0   484
2 25394 098.5458 155.4823 0002212 069.9851 290.1562 14.24056402348454
FENGYUN1
1 25730U 99025A   05083.72751560 -.00000196  00000-0 -84204-4 0  3748
2 25730 098.6066 088.8869 0014098 345.8030 014.2742 14.11789234302595
OKEAN-0
1 25860U 99039A   05083.74324777  .00000216  00000-0  40704-4 0  3899
2 25860 097.7678 113.3172 0002120 106.6773 253.4673 14.73223494305579
NOAA-16
1 26536U 00055A   05083.48332437 -.00000032  00000-0  74762-5 0  2879
2 26536 099.0038 041.4796 0009872 308.6031 051.4237 14.12220845232100
NOAA-17
1 27453U 02032A   05082.12398724 -.00000044  00000-0  82916-8 0  3110
2 27453 098.6672 156.9211 0010833 307.1418 052.8750 14.23643181142596
HUBBLE
1 20580U 90037B   05083.47397082  .00000874  00000-0  56166-4 0  3014
2 20580 028.4673 100.7220 0003657 098.4082 261.6922 14.99644257617510
UARS
1 21701U 91063B   05082.90782882  .00000003  00000-0  18892-4 0  4045
2 21701 056.9810 175.7357 0005899 111.2877 248.8793 15.03786381740661
PO-34
1 25520U 98064B   05083.86035625  .00001103  00000-0  45807-4 0  1391
2 25520 028.4588 156.0195 0005572 031.8824 328.2090 15.16176477353777
ISS
1 25544U 98067A   05083.86912350  .00016737  00000-0  13345-3 0   860
2 25544 051.6478 332.3099 0003539 228.7698 229.4178 15.71299592362424
WO-39
1 26061U 00004A   03303.41062303  .00002252  00000-0  75720-3 0  9734
2 26061 100.1904 047.3011 0034615 281.6926 078.0378 14.38082544197011
OO-38
1 26063U 00004C   05083.59343368  .00000105  00000-0  56515-4 0  3141
2 26063 100.2262 288.1067 0036639 293.4648 066.2705 14.35708422270154
NO-45
1 26932U 01043D   05083.76850075  .00000090  00000-0  67537-4 0  9939
2 26932 067.0571 084.8641 0008996 259.7823 100.2303 14.29476748181730


Read previous mail | Read next mail


 14.07.2026 19:19:34lGo back Go up